This demonstration page uses our WeatherBlox Daily Observations layout. Learn more.

Left ArrowRight Arrow

44.89941, -97.11507

Hourly Observations for November 29, 2020

Temp ( °F °C ) Dew Point ( °F °C ) Humidity (%) Winds ( mph kmh ) Pressure ( in mb ) Visibility ( mi km ) Precip ( " mm )
12:53 am 00:53 Clear 38 3.3 25 -3.9 60 60 NW 13 20 30.02 1017 10 16 0.00 0.00
1:53 am 01:53 Clear 36 2.2 26 -3.3 67 67 NNW 25 41 30.06 1018 10 16 0.00 0.00
2:53 am 02:53 Clear 32 0 24 -4.4 73 73 NNW 30 48 30.11 1020 10 16 0.00 0.00
3:53 am 03:53 Clear 31 -0.6 24 -4.4 76 76 NNW 24 39 30.16 1021 10 16 0.00 0.00
4:53 am 04:53 Clear 30 -1.1 23 -5 75 75 NNW 23 37 30.19 1023 10 16 0.00 0.00
5:53 am 05:53 Clear 29 -1.7 17 -8.3 61 61 NNW 24 39 30.23 1024 10 16 0.00 0.00
6:53 am 06:53 Clear 27 -2.8 17 -8.3 66 66 NNW 25 41 30.27 1025 10 16 0.00 0.00
7:53 am 07:53 Sunny 26 -3.3 19 -7.2 75 75 NW 20 31 30.29 1026 10 16 0.00 0.00
8:53 am 08:53 Mostly Cloudy 28 -2.2 19 -7.2 69 69 NW 22 35 30.31 1026 10 16 0.00 0.00
9:53 am 09:53 Cloudy 29 -1.7 18 -7.8 63 63 NW 23 37 30.33 1027 10 16 0.00 0.00
10:53 am 10:53 Partly Cloudy 30 -1.1 18 -7.8 61 61 NW 22 35 30.35 1028 10 16 0.00 0.00
11:53 am 11:53 Sunny 31 -0.6 17 -8.3 56 56 NW 20 31 30.36 1028 10 16 0.00 0.00
12:53 pm 12:53 Sunny 30 -1.1 13 -10.6 49 49 NW 24 39 30.36 1028 10 16 0.00 0.00
1:53 pm 13:53 Sunny 31 -0.6 12 -11.1 45 45 NW 21 33 30.36 1028 10 16 0.00 0.00
2:53 pm 14:53 Sunny 31 -0.6 13 -10.6 47 47 NW 21 33 30.37 1029 10 16 0.00 0.00
3:53 pm 15:53 Sunny 30 -1.1 13 -10.6 49 49 NW 23 37 30.39 1029 10 16 0.00 0.00
4:53 pm 16:53 Clear 27 -2.8 13 -10.6 55 55 NW 16 26 30.41 1030 10 16 0.00 0.00
5:53 pm 17:53 Clear 26 -3.3 14 -10 60 60 NW 13 20 30.42 1030 10 16 0.00 0.00
6:53 pm 18:53 Clear 24 -4.4 14 -10 65 65 NW 12 19 30.42 1030 10 16 0.00 0.00
7:53 pm 19:53 Clear 24 -4.4 14 -10 65 65 NW 12 19 30.42 1030 10 16 0.00 0.00
8:53 pm 20:53 Clear 23 -5 14 -10 68 68 NW 7 11 30.41 1030 10 16 0.00 0.00
9:53 pm 21:53 Clear 22 -5.6 14 -10 71 71 NW 9 15 30.41 1030 10 16 0.00 0.00
10:53 pm 22:53 Clear 20 -6.7 14 -10 78 78 Calm 30.40 1030 10 16 0.00 0.00
11:53 pm 23:53 Clear 20 -6.7 14 -10 78 78 NW 7 11 30.41 1030 10 16 0.00 0.00

Powered by AerisWeather